sat.trackr.live / text

‹ back to catalog

STARLINK-2001

NORAD 47596 · 2021-009BA

PAYLOAD ACTIVE UNKNOWN

§ Identity

Operator
Country
US
Launch date
2021-02-04
Launch site
AFETR
Launch vehicle
Mass (kg)
RCS (m²)

Purposes: comms

External: N2YO · Heavens-Above · Gunter

§ Orbital elements

Epoch: 2026-05-25T01:22:35.247360Z

Period
92.02 min
Inclination
53.0423°
Eccentricity
0.0004641
Mean motion
15.64926923 rev/d
Perigee alt
370.3 km
Apogee alt
376.6 km
Semi-major
6,751.6 km
B*
6.1117e-4
RAAN
10.4366°
Arg perigee
99.4837°
Mean anomaly
260.6702°
Rev number
29,270

§ Raw data

STARLINK-20011 47596U 21009BA  26145.05735240  .00060899  00000+0  61117-3 0  99972 47596  53.0423  10.4366 0004641  99.4837 260.6702 15.64926923292705

JSON: /api/v1/satellites/47596 · /tle

For live sub-satellite position, see the globe view (requires WebGL).

§ Visibility from observer

Set your observer location to see the next 7 days of passes ≥ 10°. The values pass through the URL so the page stays shareable.

No JS? Fill the form by hand. The geolocation button needs JavaScript.